Weather History for LIRM - September, 2013

Change the Weather History Date:

Wednesday, September 11, 2013

  Actual Average (LIRN) Record (LIRN)
Temperature  
Mean Temperature 71 °F -  
Max Temperature 80 °F 77 °F 87 °F (2008)
Min Temperature 62 °F 57 °F 53 °F (2001)
Cooling Degree Days 6    
Growing Degree Days 21 (Base 50)    
Moisture  
Dew Point 65 °F    
Average Humidity 82    
Maximum Humidity 94    
Minimum Humidity 68    
Precipitation  
Precipitation 0.00 in 0.12 in - ()
Sea Level Pressure  
Sea Level Pressure 30.01 in    
Wind  
Wind Speed 5 mph ()    
Max Wind Speed 13 mph    
Max Gust Speed -    
Visibility 6.7 miles    
Events Rain    
Averages and records for this station are not official NWS values.
T = Trace of Precipitation, MM = Missing Value Source: Averaged Metar Reports

Daily Weather History Graph

Daily Weather History Graph

Search for Another Location

Airport or City:

Trip Planner

Search our weather history database for the weather conditions in past years. The results will help you decide how hot, cold, wet, or windy it might be!

Date:

Astronomy

Sep. 11, 2013 Rise Set
Actual Time 6:40 AM CEST 7:19 PM CEST
Civil Twilight 6:12 AM CEST 7:47 PM CEST
Nautical Twilight 5:39 AM CEST 8:20 PM CEST
Astronomical Twilight 5:05 AM CEST 8:53 PM CEST
Moon 12:53 PM CEST (9/11) 10:56 PM CEST (9/11)
Length of Visible Light 13h 34m
Length of Day
12h 39m
Waxing Crescent, 36% of the Moon is Illuminated
Sep 11
Waxing Crescent
Sep 12
First Quarter
Sep 19
Full
Sep 27
Last Quarter
Oct 5
New

Hourly Weather History & Observations

Time (CEST) Temp. Heat Index Dew Point Humidity Pressure Visibility Wind Dir Wind Speed Gust Speed Precip Events Conditions
12:55 AM 64.4 °F - 59.0 °F 83% 29.98 in 6.2 mi East 4.6 mph - N/A   Mostly Cloudy
1:55 AM 64.4 °F - 60.8 °F 88% 29.98 in 6.2 mi ESE 5.8 mph - N/A   Mostly Cloudy
2:00 AM 65 °F - 60 °F 79% 29.98 in 6 mi ESE 5.8 mph - -  
2:55 AM 64.4 °F - 60.8 °F 88% 29.98 in 6.2 mi North 5.8 mph - N/A   Scattered Clouds
3:55 AM 64.4 °F - 59.0 °F 83% 29.98 in 6.2 mi NNE 5.8 mph - N/A   Scattered Clouds
4:55 AM 62.6 °F - 57.2 °F 82% 29.98 in 6.2 mi East 3.5 mph - N/A   Scattered Clouds
7:55 AM 62.6 °F - 59.0 °F 88% 30.01 in 6.2 mi North 4.6 mph - N/A   Scattered Clouds
8:00 AM 63 °F - 59 °F 82% 30.01 in 6 mi North 4.6 mph - -  
8:55 AM 66.2 °F - 60.8 °F 83% 30.01 in 6.2 mi NE 4.6 mph - N/A   Mostly Cloudy
9:55 AM 69.8 °F - 66.2 °F 88% 30.01 in 6.2 mi ENE 3.5 mph - N/A   Scattered Clouds
10:55 AM 75.2 °F - 71.6 °F 89% 30.04 in 6.2 mi Calm Calm - N/A   Scattered Clouds
11:00 AM 76 °F - 71 °F 80% 30.04 in 9 mi Calm Calm - -   Partly Cloudy
11:55 AM 77.0 °F - 69.8 °F 78% 30.04 in 6.2 mi West 5.8 mph - N/A   Scattered Clouds
12:55 PM 78.8 °F - 69.8 °F 74% 30.04 in 6.2 mi West 10.4 mph - N/A   Scattered Clouds
1:55 PM 80.6 °F 84.6 °F 71.6 °F 74% 30.01 in 6.2 mi West 10.4 mph - N/A   Scattered Clouds
2:00 PM 80 °F - 71 °F 68% 30.03 in 14 mi West 10.4 mph - -  
2:55 PM 78.8 °F - 71.6 °F 78% 30.01 in 6.2 mi WSW 11.5 mph - N/A   Scattered Clouds
3:55 PM 78.8 °F - 71.6 °F 78% 30.01 in 6.2 mi WSW 12.7 mph - N/A   Scattered Clouds
4:55 PM 78.8 °F - 71.6 °F 78% 29.98 in 6.2 mi WSW 12.7 mph - N/A   Scattered Clouds
5:00 PM 79 °F - 71 °F 72% 30.00 in 16 mi WSW 12.7 mph - -   Partly Cloudy
6:55 PM 69.8 °F - 66.2 °F 88% 30.01 in 5.0 mi WSW 10.4 mph - N/A Rain Light Rain Showers
7:55 PM 69.8 °F - 68.0 °F 94% 30.01 in 3.1 mi NW 10.4 mph - N/A Rain Light Rain Showers
8:00 PM 70 °F - 67 °F 89% 30.01 in 3 mi NW 10.4 mph - -  
8:55 PM 68.0 °F - 64.4 °F 88% 30.01 in 6.2 mi SSW 2.3 mph - N/A   Scattered Clouds
9:55 PM 68.0 °F - 62.6 °F 83% 30.01 in 6.2 mi ESE 4.6 mph - N/A   Scattered Clouds
10:55 PM 68.0 °F - 62.6 °F 83% 30.01 in 6.2 mi NE 2.3 mph - N/A   Mostly Cloudy
11:00 PM 68 °F - 63 °F 79% 30.01 in 7 mi NE 2.3 mph - -   Partly Cloudy
11:55 PM 68.0 °F - 62.6 °F 83% 30.01 in 6.2 mi NE 4.6 mph - N/A   Mostly Cloudy